This is the latest recevied weather packets stored in our database for station/object DL6SW-10. If no packets are shown the sender has not sent any weather packets the latest 1 day(s).
| Time | Temp. | Humidity | Pressure | Rain* | Wind** | Luminosity | Snow |
|---|---|---|---|---|---|---|---|
| 1777730979 | 48.89° C | 11% | 1020.9 hPa | - | - | - | - |
| 1777730941 | 48.89° C | 11% | 1020.9 hPa | - | - | - | - |
| 1777730044 | 45° C | 12% | 1020.7 hPa | - | - | - | - |
| 1777730040 | 45° C | 12% | 1020.7 hPa | - | - | - | - |
| 1777729143 | 45.56° C | 12% | 1020.1 hPa | - | - | - | - |
| 1777729139 | 45.56° C | 12% | 1020.1 hPa | - | - | - | - |
| 1777728242 | 41.67° C | 14% | 1020.8 hPa | - | - | - | - |
| 1777727345 | 41.11° C | 14% | 1021 hPa | - | - | - | - |
| 1777727337 | 41.11° C | 14% | 1021 hPa | - | - | - | - |
| 1777726448 | 38.33° C | 16% | 1021.3 hPa | - | - | - | - |
| 1777726435 | 38.33° C | 16% | 1021.3 hPa | - | - | - | - |
| 1777725543 | 38.89° C | 16% | 1021.9 hPa | - | - | - | - |
| 1777725534 | 38.89° C | 16% | 1021.9 hPa | - | - | - | - |
| 1777724646 | 36.11° C | 18% | 1021.5 hPa | - | - | - | - |
| 1777724633 | 36.11° C | 18% | 1021.5 hPa | - | - | - | - |
| 1777723801 | 34.44° C | 18% | 1021.8 hPa | - | - | - | - |
| 1777723732 | 34.44° C | 18% | 1021.8 hPa | - | - | - | - |
| 1777722839 | 33.33° C | 19% | 1022.4 hPa | - | - | - | - |
| 1777722831 | 33.33° C | 19% | 1022.4 hPa | - | - | - | - |
| 1777721947 | 32.78° C | 20% | 1022.4 hPa | - | - | - | - |
| 1777721930 | 32.78° C | 20% | 1022.4 hPa | - | - | - | - |
| 1777721035 | 33.33° C | 21% | 1022.4 hPa | - | - | - | - |
| 1777721029 | 33.33° C | 21% | 1022.4 hPa | - | - | - | - |
| 1777720135 | 35.56° C | 21% | 1023.1 hPa | - | - | - | - |
| 1777720127 | 35.56° C | 21% | 1023.1 hPa | - | - | - | - |
* Rain since midnight (hover to see other rain measurements)
** Current wind speed in m/s (hover to see current wind gust speed)